Lake Cumberland Weather Center

Moon Phase Calendar



Lake Cumberland Water Level
Online Cameras

 


      

Current Conditions in Monticello
4/17/2024 5:33:50 PM

73°F
Feels Like 73
Clouds
Humidity
75%
Pressure
29.94"
Wind
15 mph (SW)
Dew Point
64°F
UV Index
1/10 (Low)
Visibility
6 mi

Hourly Forecast

Date & Time Wed, Apr 17
5:00 PM
Wed, Apr 17
6:00 PM
Wed, Apr 17
7:00 PM
Wed, Apr 17
8:00 PM
Wed, Apr 17
9:00 PM
Wed, Apr 17
10:00 PM
Wed, Apr 17
11:00 PM
Thu, Apr 18
12:00 AM
Thu, Apr 18
1:00 AM
Thu, Apr 18
2:00 AM
Thu, Apr 18
3:00 AM
Thu, Apr 18
4:00 AM
Thu, Apr 18
5:00 AM
Thu, Apr 18
6:00 AM
Thu, Apr 18
7:00 AM
Thu, Apr 18
8:00 AM
Thu, Apr 18
9:00 AM
Thu, Apr 18
10:00 AM
Thu, Apr 18
11:00 AM
Thu, Apr 18
12:00 PM
Thu, Apr 18
1:00 PM
Thu, Apr 18
2:00 PM
Thu, Apr 18
3:00 PM
Thu, Apr 18
4:00 PM
Thu, Apr 18
5:00 PM
Thu, Apr 18
6:00 PM
Thu, Apr 18
7:00 PM
Thu, Apr 18
8:00 PM
Thu, Apr 18
9:00 PM
Thu, Apr 18
10:00 PM
Thu, Apr 18
11:00 PM
Fri, Apr 19
12:00 AM
Fri, Apr 19
1:00 AM
Fri, Apr 19
2:00 AM
Fri, Apr 19
3:00 AM
Fri, Apr 19
4:00 AM
Fri, Apr 19
5:00 AM
Fri, Apr 19
6:00 AM
Fri, Apr 19
7:00 AM
Fri, Apr 19
8:00 AM
Fri, Apr 19
9:00 AM
Fri, Apr 19
10:00 AM
Fri, Apr 19
11:00 AM
Fri, Apr 19
12:00 PM
Fri, Apr 19
1:00 PM
Fri, Apr 19
2:00 PM
Fri, Apr 19
3:00 PM
Fri, Apr 19
4:00 PM
Condition
Clouds

Clouds

Clouds

Rain

Clouds

Clouds

Clear

Clear

Clear

Clear

Clouds

Clouds

Clouds

Clouds

Clouds

Clouds

Clouds

Clouds

Clouds

Clouds

Clouds

Clouds

Clear

Clear

Clear

Clouds

Clouds

Clouds

Clouds

Clouds

Clouds

Rain

Rain

Rain

Rain

Rain

Rain

Rain

Clouds

Rain

Rain

Rain

Clouds

Clouds

Clouds

Clouds

Clouds

Clouds
Temperature 73°F73°F72°F70°F68°F65°F62°F61°F60°F60°F59°F59°F58°F58°F58°F60°F62°F64°F66°F68°F73°F77°F79°F80°F80°F79°F75°F70°F67°F66°F64°F63°F63°F63°F62°F62°F62°F63°F63°F63°F63°F60°F57°F56°F56°F57°F58°F59°F
Feels Like 73°F73°F72°F71°F68°F66°F62°F61°F61°F60°F60°F59°F58°F58°F58°F60°F62°F64°F66°F68°F73°F77°F79°F81°F81°F79°F76°F70°F67°F66°F64°F63°F63°F63°F63°F62°F62°F63°F63°F63°F64°F60°F57°F56°F56°F57°F57°F59°F
Cloudiness 100%100%100%96%45%23%2%1%1%3%26%32%38%43%45%47%55%66%73%75%71%61%0%0%2%17%32%41%92%96%92%94%95%96%100%100%100%100%100%100%100%100%100%100%100%100%100%100%
Visibility 6 mi6 mi6 mi6 mi6 mi6 mi6 mi6 mi6 mi6 mi6 mi6 mi6 mi4 mi5 mi6 mi6 mi6 mi6 mi6 mi6 mi6 mi6 mi6 mi6 mi6 mi6 mi6 mi6 mi6 mi6 mi6 mi6 mi6 mi6 mi5 mi4 mi6 mi6 mi6 mi6 mi6 mi6 mi6 mi6 mi6 mi6 mi6 mi
Precipitation 73%49%79%100%40%21%2%0%0%0%0%0%0%0%0%0%0%0%0%0%0%0%0%0%0%0%0%0%0%0%0%20%100%100%100%100%100%100%80%100%100%100%80%83%61%44%0%0%
Humidity 74%75%77%81%86%91%96%97%98%99%99%99%99%99%99%97%94%90%87%82%69%58%51%46%47%54%65%71%74%77%80%82%88%93%94%96%98%96%97%96%97%97%96%94%92%89%85%81%
Dew Point 64°F64°F64°F64°F63°F63°F61°F60°F60°F59°F59°F59°F58°F58°F58°F59°F60°F61°F62°F62°F62°F61°F59°F58°F58°F61°F63°F60°F59°F58°F58°F58°F60°F61°F60°F61°F61°F62°F62°F62°F62°F59°F56°F54°F54°F54°F53°F53°F
Pressure 29.94"29.94"29.94"29.94"29.97"30"30.03"30.03"30.03"30.03"30.03"30.03"30.06"30.06"30.06"30.09"30.09"30.09"30.09"30.09"30.06"30.03"30"29.97"29.94"29.94"29.94"29.94"29.94"29.94"29.91"29.91"29.91"29.91"29.91"29.91"29.94"29.91"29.94"29.94"29.97"30"30.03"30.06"30.06"30.06"30.06"30.06"
Wind Speed 14.6 mph12.9 mph12.2 mph11.4 mph9.1 mph7.2 mph5.5 mph4.8 mph4.5 mph4.4 mph4.2 mph3.7 mph3.1 mph2.8 mph2.8 mph2.2 mph3.2 mph4.1 mph4.1 mph5.3 mph5.4 mph5.1 mph4.4 mph4.2 mph5.1 mph4.5 mph2.7 mph4 mph4.1 mph4.7 mph6.2 mph7 mph9.7 mph8.4 mph7.2 mph5.6 mph8.2 mph9.3 mph7.7 mph9 mph9.4 mph9.5 mph10.4 mph8 mph8.1 mph8.5 mph7.6 mph7.3 mph
Wind
Direction
222°
SW
221°
SW
220°
SW
214°
SW
209°
SSW
214°
SW
215°
SW
214°
SW
241°
WSW
236°
SW
233°
SW
241°
WSW
257°
WSW
243°
WSW
236°
SW
219°
SW
203°
SSW
195°
SSW
198°
SSW
196°
SSW
209°
SSW
229°
SW
236°
SW
239°
WSW
235°
SW
238°
WSW
227°
SW
186°
S
170°
S
156°
SSE
169°
S
190°
S
215°
SW
213°
SSW
216°
SW
267°
W
228°
SW
228°
SW
218°
SW
233°
SW
268°
W
298°
WNW
326°
NW
333°
NNW
336°
NNW
339°
NNW
345°
NNW
342°
NNW

Daily Forecast

Date High Low Precip. Humidity
Today
Apr 17

Rain
73 °F
61 °F
100%
95%
Thursday
Apr 18

Clouds
80 °F
58 °F
0%
69%
Friday
Apr 19

Rain
63 °F
51 °F
100%
92%
Saturday
Apr 20

Clear
62 °F
42 °F
0%
44%
Sunday
Apr 21

Clouds
53 °F
42 °F
0%
53%
Monday
Apr 22

Clouds
59 °F
38 °F
0%
47%
Tuesday
Apr 23

Clouds
66 °F
40 °F
0%
42%
Wednesday
Apr 24

Rain
68 °F
53 °F
23%
74%
Thursday
Apr 25

Rain
68 °F
51 °F
100%
80%
Friday
Apr 26

Rain
68 °F
51 °F
61%
70%
Saturday
Apr 27

Clouds
77 °F
57 °F
0%
59%
Sunday
Apr 28

Rain
78 °F
58 °F
31%
63%
Monday
Apr 29

Clouds
81 °F
63 °F
0%
52%
Tuesday
Apr 30

Rain
75 °F
56 °F
100%
75%
Wednesday
May 1

Clear
67 °F
45 °F
82%
48%
Thursday
May 2

Clouds
79 °F
46 °F
0%
35%

Temperature 8-14 Day Outlook



Precipitation 8-14 Day Outlook






About Us
Contact Us
Site Map
Search Site
Advertise With Us
   
Cumberland.USLakes.info
THE LAKE CUMBERLAND WEBSITE

Copyright 2024, Lakes Online
Privacy    |    Legal